Temp
-8 -8 -8 -8 -8 -8 -8 -7 -7 -7 -7 -7 -7 -7 -7 -7 -7 -8 -8 -8 -8 -7 -7 -6 -7 -7 -7 -7 -7 -7 -7 -7 -7 -8 -8 -8 -8 -8 -8 -8 -8 -8 -8 -8 -8 -8 -8 -8 -9 -9 -9 -9 -9 -9 -9 -9 -9 -9 -9 -9 -9 -9 -9
-8 -8 -8 -8 -8 -8 -8 -7 -7 -7 -7 -7 -7 -7 -7 -7 -7 -7 -7 -8 -8 -7 -7 -7 -7 -7 -7 -7 -7 -7 -7 -7 -7 -8 -8 -8 -8 -8 -8 -8 -8 -8 -8 -8 -8 -8 -9 -9 -9 -9 -9 -9 -9 -9 -9 -9 -9 -9 -9 -9 -9 -9 -9
-8 -8 -8 -8 -8 -8 -8 -7 -7 -7 -7 -7 -7 -7 -7 -7 -7 -7 -7 -7 -7 -7 -7 -7 -7 -7 -7 -7 -7 -7 -7 -7 -8 -8 -8 -8 -8 -8 -8 -8 -8 -8 -8 -8 -8 -9 -9 -9 -9 -9 -9 -9 -9 -9 -9 -9 -9 -9 -9 -9 -9 -9 -9
-8 -8 -8 -8 -8 -8 -7 -7 -7 -7 -7 -7 -7 -7 -7 -7 -7 -7 -7 -7 -7 -7 -7 -7 -7 -7 -7 -7 -7 -8 -8 -8 -8 -8 -8 -8 -8 -8 -8 -9 -9 -9 -9 -9 -9 -9 -9 -9 -9 -9 -9 -9 -9 -9 -9 -9 -9 -9 -9 -9 -9 -9 -9
-8 -8 -8 -8 -8 -7 -7 -8 -8 -8 -7 -7 -7 -7 -8 -8 -8 -8 -7 -7 -6 -7 -7 -7 -7 -7 -8 -8 -8 -8 -8 -7 -7 -8 -8 -8 -8 -8 -9 -9 -9 -9 -9 -9 -9 -9 -9 -9 -9 -9 -9 -9 -9 -9 -9 -9 -9 -9 -9 -9 -9 -10 -10
-9 -9 -8 -7 -7 -7 -8 -8 -8 -8 -8 -8 -7 -7 -8 -8 -7 -7 -7 -7 -6 -7 -7 -7 -7 -8 -8 -7 -7 -7 -7 -7 -7 -8 -8 -8 -9 -9 -9 -9 -9 -9 -9 -9 -9 -9 -9 -9 -9 -9 -9 -9 -9 -9 -9 -10 -10 -10 -10 -10 -10 -10 -10
-9 -9 -8 -8 -8 -8 -8 -8 -8 -8 -8 -8 -8 -7 -8 -8 -8 -7 -7 -7 -7 -7 -7 -7 -7 -7 -7 -7 -7 -7 -7 -7 -7 -8 -9 -9 -9 -9 -9 -9 -9 -9 -9 -9 -9 -9 -9 -9 -9 -9 -10 -10 -10 -10 -10 -10 -10 -10 -10 -10 -10 -10 -10
-9 -9 -9 -8 -8 -8 -8 -8 -8 -8 -8 -8 -8 -8 -7 -8 -8 -8 -7 -7 -7 -7 -7 -7 -7 -7 -7 -7 -7 -7 -7 -7 -8 -8 -9 -9 -9 -9 -9 -9 -9 -9 -9 -9 -9 -9 -9 -10 -10 -10 -10 -10 -10 -10 -10 -10 -10 -10 -10 -10 -10 -10 -11
-8 -9 -9 -9 -9 -9 -8 -8 -8 -8 -8 -8 -8 -8 -8 -8 -8 -8 -7 -7 -7 -8 -7 -7 -7 -7 -7 -7 -7 -7 -7 -7 -8 -8 -9 -9 -9 -9 -9 -8 -9 -9 -9 -9 -9 -10 -10 -10 -10 -10 -10 -10 -10 -10 -10 -10 -10 -10 -10 -11 -11 -11 -11
-8 -8 -9 -9 -9 -9 -8 -8 -8 -8 -8 -8 -8 -8 -8 -7 -7 -7 -7 -7 -8 -8 -8 -8 -8 -8 -7 -7 -7 -7 -7 -7 -8 -8 -9 -9 -9 -9 -9 -9 -9 -9 -9 -9 -10 -10 -10 -10 -10 -10 -10 -10 -10 -10 -10 -10 -10 -10 -11 -11 -11 -11 -11
-8 -8 -8 -8 -8 -8 -8 -8 -8 -8 -8 -8 -8 -8 -7 -7 -7 -7 -7 -7 -7 -7 -8 -8 -8 -8 -7 -7 -7 -7 -7 -8 -8 -9 -9 -9 -9 -9 -9 -9 -9 -9 -10 -10 -10 -10 -10 -10 -10 -10 -10 -10 -10 -10 -10 -10 -11 -11 -11 -11 -11 -11 -12
-8 -8 -8 -8 -8 -8 -8 -8 -8 -8 -8 -8 -8 -8 -7 -7 -7 -6 -7 -7 -7 -7 -7 -7 -7 -7 -7 -7 -7 -7 -7 -8 -8 -9 -9 -9 -9 -9 -9 -9 -10 -10 -10 -10 -10 -10 -10 -10 -10 -10 -10 -10 -10 -10 -10 -11 -11 -11 -11 -11 -11 -12 -12
-8 -8 -8 -8 -8 -8 -8 -8 -8 -8 -8 -8 -8 -8 -8 -8 -7 -7 -7 -7 -7 -7 -7 -8 -8 -8 -8 -8 -8 -8 -8 -9 -9 -9 -9 -10 -10 -9 -9 -10 -10 -10 -10 -10 -10 -10 -10 -10 -10 -10 -10 -10 -10 -10 -11 -11 -11 -11 -11 -12 -12 -12 -12
-8 -8 -8 -8 -8 -8 -8 -8 -8 -8 -8 -8 -8 -8 -8 -8 -8 -7 -8 -7 -7 -7 -7 -8 -8 -8 -8 -8 -8 -8 -9 -9 -10 -10 -10 -10 -10 -9 -9 -10 -10 -10 -10 -10 -10 -10 -10 -10 -10 -10 -10 -11 -11 -11 -11 -11 -11 -11 -11 -12 -12 -12 -12
-8 -8 -8 -8 -8 -8 -8 -8 -8 -8 -8 -8 -8 -8 -8 -8 -8 -8 -8 -8 -7 -7 -7 -7 -8 -8 -8 -8 -8 -8 -9 -9 -10 -10 -10 -10 -10 -9 -10 -10 -10 -10 -10 -10 -10 -10 -10 -10 -10 -11 -11 -11 -11 -11 -11 -11 -11 -12 -12 -12 -12 -12 -12
-8 -8 -8 -8 -8 -8 -8 -8 -8 -8 -8 -8 -8 -8 -8 -8 -8 -8 -8 -8 -7 -7 -7 -8 -8 -8 -8 -9 -9 -9 -9 -10 -10 -10 -10 -10 -10 -10 -10 -10 -10 -10 -10 -10 -10 -10 -10 -11 -11 -11 -11 -11 -11 -11 -11 -11 -12 -12 -12 -12 -12 -12 -12
-8 -8 -8 -8 -8 -8 -8 -8 -8 -8 -8 -8 -8 -8 -8 -7 -7 -8 -8 -8 -7 -7 -7 -8 -8 -8 -9 -9 -9 -9 -10 -10 -10 -11 -10 -10 -10 -10 -10 -10 -10 -10 -10 -10 -11 -11 -11 -11 -11 -11 -11 -11 -11 -11 -11 -11 -12 -12 -12 -12 -12 -13 -13
-8 -8 -8 -8 -8 -8 -8 -8 -9 -9 -8 -8 -8 -8 -8 -8 -8 -8 -8 -7 -7 -7 -8 -8 -8 -8 -9 -9 -10 -10 -11 -11 -11 -11 -10 -10 -10 -10 -10 -10 -10 -10 -10 -11 -11 -11 -11 -11 -11 -11 -11 -11 -11 -11 -11 -12 -12 -12 -12 -12 -13 -13 -13
-8 -7 -8 -8 -7 -7 -8 -8 -8 -9 -8 -8 -8 -8 -8 -8 -8 -8 -8 -7 -8 -8 -8 -8 -8 -9 -10 -10 -10 -11 -11 -11 -11 -10 -10 -10 -10 -10 -10 -11 -11 -10 -11 -11 -11 -11 -11 -11 -11 -11 -11 -11 -12 -12 -12 -12 -12 -13 -13 -13 -13 -13 -13
-8 -8 -8 -7 -7 -7 -8 -8 -8 -8 -8 -8 -8 -8 -8 -8 -8 -8 -8 -8 -8 -8 -9 -9 -9 -10 -10 -10 -10 -10 -10 -10 -10 -10 -10 -10 -10 -11 -11 -11 -11 -11 -11 -11 -11 -11 -11 -11 -11 -12 -12 -12 -12 -12 -12 -13 -13 -13 -13 -13 -13 -13 -13
-8 -8 -8 -7 -7 -7 -7 -8 -8 -8 -8 -8 -8 -8 -8 -8 -8 -8 -8 -8 -9 -9 -9 -9 -10 -10 -10 -10 -10 -10 -10 -11 -11 -10 -10 -10 -10 -11 -11 -11 -11 -11 -11 -11 -11 -11 -11 -11 -12 -12 -12 -12 -12 -12 -13 -13 -13 -13 -13 -13 -13 -13 -13
-9 -8 -8 -8 -8 -7 -8 -8 -8 -8 -8 -8 -8 -8 -8 -8 -8 -8 -8 -8 -9 -9 -9 -10 -10 -10 -10 -10 -11 -11 -11 -11 -11 -10 -10 -10 -10 -10 -10 -11 -11 -11 -11 -11 -11 -11 -11 -12 -12 -12 -12 -13 -12 -13 -13 -13 -13 -13 -13 -13 -13 -13 -13
-9 -8 -8 -8 -8 -8 -8 -9 -9 -8 -8 -8 -9 -9 -8 -8 -8 -8 -8 -9 -9 -9 -9 -10 -9 -9 -10 -10 -11 -11 -11 -11 -10 -10 -10 -10 -10 -10 -10 -10 -11 -11 -11 -11 -11 -11 -12 -12 -12 -12 -13 -13 -13 -13 -13 -13 -14 -13 -13 -13 -13 -13 -13
-9 -9 -9 -8 -8 -8 -9 -9 -9 -9 -8 -8 -9 -9 -9 -9 -9 -9 -9 -9 -10 -10 -10 -10 -10 -10 -10 -10 -11 -11 -11 -11 -10 -10 -10 -10 -10 -10 -10 -11 -11 -11 -11 -11 -11 -12 -12 -12 -12 -13 -13 -13 -13 -13 -13 -13 -14 -13 -13 -13 -13 -13 -13
-9 -9 -9 -9 -8 -8 -8 -9 -9 -9 -9 -9 -9 -9 -9 -9 -10 -10 -10 -10 -10 -10 -10 -10 -10 -10 -10 -11 -11 -11 -11 -11 -11 -11 -11 -11 -10 -10 -11 -11 -11 -11 -11 -12 -12 -12 -12 -12 -13 -13 -13 -13 -13 -14 -14 -14 -13 -13 -13 -13 -13 -13 -13
-9 -9 -9 -9 -8 -8 -9 -9 -9 -9 -9 -9 -9 -9 -9 -9 -10 -10 -10 -10 -10 -10 -10 -11 -11 -10 -11 -11 -11 -11 -11 -11 -11 -11 -11 -11 -11 -11 -11 -11 -11 -11 -12 -12 -12 -12 -12 -13 -13 -13 -13 -14 -14 -14 -14 -14 -14 -14 -14 -13 -13 -13 -14
-10 -10 -9 -9 -8 -9 -9 -10 -10 -10 -10 -10 -9 -9 -9 -10 -10 -10 -10 -10 -10 -10 -10 -11 -11 -11 -11 -11 -11 -11 -11 -11 -11 -11 -11 -11 -11 -11 -11 -11 -11 -12 -12 -12 -12 -12 -13 -13 -13 -14 -14 -14 -14 -14 -14 -14 -14 -14 -14 -13 -14 -14 -14
-11 -10 -10 -9 -9 -9 -9 -10 -10 -10 -10 -10 -10 -10 -10 -10 -10 -10 -10 -10 -10 -10 -11 -11 -11 -11 -11 -11 -12 -12 -12 -11 -11 -11 -11 -11 -12 -12 -12 -12 -12 -12 -12 -12 -12 -13 -13 -13 -14 -14 -14 -14 -14 -14 -14 -14 -14 -14 -14 -14 -14 -14 -14
-11 -11 -11 -10 -10 -10 -10 -9 -10 -10 -10 -10 -10 -10 -10 -10 -10 -10 -10 -10 -11 -11 -11 -11 -11 -12 -12 -12 -12 -12 -12 -11 -11 -12 -12 -12 -12 -12 -12 -12 -12 -12 -12 -12 -13 -13 -13 -14 -14 -14 -14 -14 -14 -14 -14 -15 -14 -14 -14 -14 -14 -14 -14
-11 -11 -11 -11 -11 -11 -10 -10 -10 -10 -10 -10 -10 -10 -10 -11 -11 -11 -11 -11 -11 -12 -12 -12 -12 -12 -12 -12 -12 -12 -11 -11 -11 -12 -12 -12 -12 -12 -12 -12 -12 -13 -13 -13 -13 -13 -14 -14 -14 -14 -14 -14 -14 -14 -14 -15 -14 -15 -15 -15 -15 -14 -14
-12 -11 -11 -11 -11 -11 -10 -10 -10 -10 -10 -11 -11 -11 -11 -11 -11 -11 -12 -12 -12 -12 -12 -12 -12 -11 -11 -11 -11 -11 -11 -11 -11 -12 -12 -12 -12 -12 -13 -13 -13 -13 -13 -13 -14 -14 -14 -14 -14 -14 -14 -14 -14 -14 -14 -14 -15 -15 -15 -15 -15 -15 -15
-12 -12 -11 -11 -11 -10 -10 -10 -10 -10 -11 -11 -11 -11 -11 -12 -12 -12 -11 -11 -11 -11 -11 -11 -11 -11 -11 -11 -11 -11 -11 -11 -12 -12 -12 -12 -13 -13 -13 -13 -13 -14 -14 -14 -14 -15 -14 -14 -15 -15 -15 -15 -15 -15 -14 -14 -15 -15 -15 -15 -15 -15 -15
-12 -12 -12 -12 -11 -11 -11 -11 -11 -11 -12 -12 -12 -12 -12 -12 -12 -12 -12 -12 -11 -11 -11 -11 -11 -11 -11 -11 -11 -11 -11 -12 -12 -12 -12 -13 -13 -13 -13 -13 -14 -14 -14 -14 -15 -15 -15 -15 -15 -15 -15 -15 -15 -15 -15 -14 -15 -15 -15 -15 -15 -15 -15
-12 -12 -12 -12 -12 -12 -11 -12 -12 -12 -12 -12 -12 -12 -12 -12 -12 -12 -12 -12 -12 -12 -11 -11 -11 -11 -11 -11 -11 -11 -11 -12 -12 -12 -13 -13 -13 -13 -14 -14 -14 -15 -15 -15 -15 -15 -15 -15 -15 -15 -15 -15 -15 -15 -15 -15 -15 -15 -15 -15 -15 -15 -15
-13 -13 -12 -12 -12 -12 -12 -13 -13 -13 -12 -12 -12 -12 -12 -12 -12 -12 -12 -12 -12 -12 -12 -12 -12 -12 -12 -12 -12 -12 -12 -12 -13 -13 -13 -13 -14 -14 -14 -14 -15 -15 -15 -15 -15 -15 -15 -15 -15 -15 -15 -15 -15 -15 -15 -15 -15 -15 -15 -15 -15 -15 -15
-13 -13 -13 -13 -13 -13 -13 -13 -13 -12 -12 -13 -13 -13 -13 -13 -13 -13 -13 -12 -12 -12 -12 -12 -12 -12 -12 -12 -12 -12 -13 -13 -13 -13 -14 -14 -14 -14 -15 -15 -15 -15 -15 -15 -15 -15 -15 -15 -15 -15 -15 -15 -15 -15 -15 -15 -15 -15 -15 -15 -15 -15 -15
-13 -13 -13 -13 -13 -13 -13 -13 -13 -13 -13 -13 -13 -13 -13 -13 -13 -13 -13 -13 -12 -12 -12 -12 -12 -12 -12 -12 -12 -13 -13 -13 -14 -14 -14 -14 -15 -15 -15 -15 -15 -15 -15 -15 -15 -15 -15 -15 -16 -15 -15 -15 -15 -15 -16 -16 -16 -15 -15 -15 -15 -15 -15
Height
5912 5913 5912 5911 5912 5912 5912 5912 5912 5912 5912 5913 5913 5912 5911 5910 5910 5909 5908 5908 5907 5907 5907 5907 5908 5907 5907 5906 5904 5903 5903 5902 5902 5901 5900 5899 5897 5895 5893 5891 5889 5887 5885 5883 5881 5878 5876 5873 5870 5867 5864 5861 5858 5854 5851 5848 5845 5843 5840 5837 5834 5831 5827
5910 5910 5910 5910 5910 5910 5910 5910 5910 5910 5910 5910 5910 5910 5909 5909 5908 5907 5906 5906 5906 5905 5904 5904 5905 5904 5903 5902 5901 5900 5900 5899 5898 5897 5897 5896 5894 5892 5890 5889 5887 5884 5882 5880 5878 5875 5872 5870 5867 5864 5860 5857 5854 5850 5846 5843 5840 5837 5834 5831 5828 5825 5822
5908 5907 5908 5908 5907 5908 5909 5909 5908 5908 5908 5908 5908 5907 5907 5906 5905 5904 5904 5903 5904 5904 5903 5902 5902 5901 5901 5900 5899 5898 5897 5897 5895 5895 5895 5894 5891 5889 5887 5886 5883 5881 5879 5876 5874 5871 5868 5866 5863 5860 5856 5853 5850 5847 5843 5839 5836 5832 5829 5826 5822 5819 5816
5906 5905 5906 5906 5906 5906 5907 5907 5907 5907 5906 5906 5906 5905 5904 5904 5903 5902 5901 5901 5902 5902 5902 5901 5900 5899 5898 5898 5897 5896 5895 5895 5894 5894 5893 5891 5888 5886 5884 5882 5880 5877 5874 5871 5870 5867 5864 5861 5858 5855 5852 5849 5846 5843 5840 5836 5832 5828 5825 5822 5818 5814 5811
5904 5903 5903 5904 5904 5905 5906 5905 5905 5905 5904 5904 5903 5902 5902 5901 5901 5900 5899 5899 5900 5900 5900 5899 5899 5898 5897 5897 5896 5895 5894 5894 5894 5893 5890 5887 5885 5883 5881 5879 5877 5874 5870 5868 5865 5862 5859 5855 5852 5850 5847 5844 5842 5839 5836 5833 5829 5825 5822 5818 5814 5810 5807
5902 5901 5900 5902 5903 5903 5904 5904 5903 5903 5902 5901 5900 5900 5899 5898 5898 5897 5896 5896 5897 5898 5898 5898 5897 5897 5896 5896 5895 5895 5894 5893 5892 5890 5887 5884 5881 5880 5878 5876 5874 5871 5867 5864 5861 5858 5854 5851 5848 5846 5843 5840 5837 5834 5831 5828 5825 5821 5817 5814 5810 5807 5803
5900 5899 5898 5899 5900 5900 5901 5900 5900 5900 5899 5897 5897 5897 5896 5895 5894 5893 5893 5893 5894 5895 5895 5895 5895 5894 5894 5894 5894 5893 5891 5891 5889 5886 5883 5881 5879 5877 5876 5874 5872 5869 5864 5860 5857 5854 5851 5848 5844 5842 5839 5835 5832 5829 5826 5823 5819 5816 5812 5809 5805 5802 5799
5898 5898 5897 5897 5898 5897 5897 5897 5897 5896 5896 5895 5894 5894 5893 5893 5892 5891 5890 5890 5891 5892 5892 5892 5891 5891 5890 5890 5889 5888 5887 5886 5885 5883 5880 5878 5876 5875 5873 5871 5869 5865 5861 5857 5854 5850 5847 5844 5841 5838 5835 5831 5828 5825 5821 5818 5814 5810 5807 5803 5800 5797 5794
5896 5896 5896 5895 5895 5895 5895 5895 5895 5894 5893 5892 5892 5892 5891 5890 5890 5889 5888 5887 5888 5888 5888 5888 5887 5886 5885 5884 5884 5883 5882 5881 5880 5879 5878 5876 5874 5872 5869 5867 5864 5860 5857 5854 5851 5847 5844 5841 5838 5835 5832 5828 5824 5821 5817 5813 5809 5805 5802 5799 5796 5793 5790
5894 5895 5895 5894 5893 5892 5892 5893 5893 5892 5890 5889 5889 5889 5888 5887 5887 5886 5886 5886 5886 5885 5884 5884 5883 5882 5881 5880 5880 5879 5878 5877 5876 5876 5875 5873 5871 5868 5865 5862 5859 5856 5853 5850 5847 5844 5841 5838 5835 5832 5828 5825 5821 5817 5813 5809 5805 5801 5798 5794 5791 5789 5785
5891 5892 5892 5892 5891 5889 5889 5889 5890 5889 5888 5887 5886 5885 5885 5884 5883 5883 5883 5883 5882 5882 5881 5880 5879 5878 5877 5877 5877 5876 5875 5874 5873 5872 5871 5869 5866 5863 5860 5858 5855 5852 5849 5846 5843 5841 5838 5835 5831 5828 5824 5821 5817 5813 5809 5806 5802 5798 5794 5791 5787 5784 5781
5887 5888 5888 5887 5887 5887 5886 5885 5886 5886 5885 5884 5882 5882 5881 5880 5879 5879 5880 5878 5878 5878 5878 5877 5875 5874 5874 5873 5873 5872 5871 5870 5869 5868 5866 5863 5861 5858 5856 5853 5851 5848 5844 5842 5840 5837 5834 5831 5827 5823 5820 5817 5813 5809 5805 5802 5798 5795 5791 5787 5784 5780 5777
5884 5884 5884 5883 5884 5883 5883 5882 5882 5882 5881 5881 5879 5878 5877 5877 5876 5876 5876 5875 5875 5876 5875 5874 5872 5871 5870 5869 5868 5867 5866 5865 5864 5863 5860 5858 5856 5853 5851 5849 5847 5844 5841 5838 5836 5833 5830 5826 5823 5819 5816 5812 5809 5805 5801 5798 5795 5791 5787 5784 5780 5777 5774
5880 5880 5880 5880 5879 5878 5878 5878 5877 5877 5878 5878 5876 5875 5874 5873 5872 5872 5872 5871 5871 5872 5871 5870 5868 5866 5865 5864 5863 5862 5861 5860 5859 5857 5854 5853 5851 5849 5847 5845 5843 5840 5837 5834 5832 5829 5826 5822 5819 5815 5812 5809 5806 5802 5797 5794 5791 5787 5784 5781 5777 5774 5771
5877 5877 5877 5876 5875 5873 5873 5874 5874 5874 5874 5874 5873 5872 5871 5869 5867 5867 5867 5866 5867 5868 5868 5866 5865 5863 5861 5860 5860 5858 5857 5855 5854 5852 5849 5848 5847 5845 5843 5841 5840 5836 5833 5830 5827 5824 5821 5818 5816 5812 5808 5805 5802 5798 5794 5790 5787 5784 5781 5777 5774 5771 5768
5873 5873 5872 5872 5871 5870 5870 5871 5870 5870 5870 5870 5869 5868 5867 5865 5864 5863 5862 5862 5863 5864 5864 5863 5861 5860 5858 5857 5856 5855 5853 5851 5849 5847 5845 5844 5843 5841 5839 5837 5835 5832 5829 5826 5823 5820 5817 5815 5812 5809 5805 5801 5798 5794 5790 5786 5783 5780 5777 5774 5771 5768 5765
5869 5869 5868 5868 5867 5867 5868 5868 5867 5865 5864 5864 5864 5863 5862 5862 5861 5860 5858 5858 5859 5859 5859 5859 5858 5857 5855 5854 5853 5851 5849 5847 5845 5843 5841 5840 5839 5838 5836 5834 5831 5828 5825 5822 5819 5816 5814 5811 5808 5805 5801 5798 5794 5790 5786 5782 5779 5776 5773 5770 5767 5764 5762
5863 5863 5864 5863 5862 5864 5866 5864 5862 5861 5860 5859 5860 5859 5859 5859 5857 5856 5855 5855 5855 5854 5854 5855 5854 5852 5851 5850 5848 5847 5845 5843 5841 5839 5837 5837 5836 5834 5833 5831 5827 5824 5821 5818 5815 5813 5810 5807 5803 5800 5797 5794 5790 5786 5782 5778 5775 5772 5770 5767 5764 5761 5759
5857 5858 5858 5857 5857 5860 5861 5860 5858 5858 5856 5856 5856 5856 5855 5854 5853 5852 5852 5851 5850 5850 5850 5850 5848 5847 5846 5845 5844 5842 5841 5839 5837 5834 5833 5832 5831 5830 5829 5827 5823 5820 5818 5814 5811 5808 5805 5802 5798 5795 5792 5789 5785 5781 5778 5774 5772 5769 5766 5763 5760 5758 5756
5851 5852 5852 5851 5852 5855 5856 5856 5855 5854 5853 5852 5852 5851 5850 5850 5850 5849 5848 5847 5846 5846 5846 5845 5844 5843 5842 5841 5839 5838 5836 5834 5832 5830 5829 5827 5827 5826 5824 5822 5820 5817 5814 5810 5807 5804 5801 5797 5794 5790 5787 5784 5781 5777 5774 5771 5768 5766 5763 5760 5757 5754 5752
5844 5846 5846 5846 5847 5849 5851 5851 5849 5849 5849 5848 5847 5846 5845 5845 5846 5846 5845 5844 5843 5842 5842 5841 5840 5839 5838 5836 5835 5834 5832 5830 5829 5827 5825 5823 5823 5821 5819 5818 5816 5813 5809 5806 5803 5800 5796 5793 5790 5786 5783 5780 5777 5774 5771 5768 5765 5762 5759 5756 5753 5751 5749
5840 5841 5841 5841 5842 5844 5845 5845 5844 5844 5844 5843 5842 5841 5840 5841 5841 5842 5842 5842 5841 5839 5838 5837 5835 5834 5833 5832 5831 5829 5827 5826 5824 5823 5820 5819 5818 5816 5814 5813 5811 5808 5805 5801 5798 5795 5792 5788 5785 5782 5779 5776 5773 5770 5767 5764 5762 5759 5756 5753 5750 5748 5747
5836 5837 5837 5837 5837 5839 5840 5840 5839 5839 5839 5839 5838 5837 5837 5837 5837 5837 5837 5837 5836 5835 5833 5832 5831 5830 5828 5828 5826 5824 5822 5820 5818 5817 5815 5813 5811 5809 5808 5807 5805 5803 5800 5796 5793 5790 5787 5784 5781 5778 5775 5772 5768 5765 5763 5760 5758 5756 5753 5750 5747 5745 5744
5833 5833 5832 5832 5833 5834 5836 5836 5836 5835 5835 5834 5834 5833 5833 5834 5833 5832 5832 5831 5831 5830 5829 5828 5827 5826 5824 5824 5822 5820 5818 5816 5813 5812 5810 5808 5806 5804 5803 5801 5799 5797 5794 5790 5787 5785 5782 5779 5776 5773 5770 5766 5764 5761 5759 5757 5755 5752 5749 5747 5744 5742 5741
5829 5829 5828 5827 5828 5830 5832 5831 5832 5832 5830 5830 5830 5830 5830 5830 5829 5828 5827 5826 5826 5826 5825 5824 5823 5821 5820 5819 5817 5816 5814 5811 5809 5807 5805 5803 5801 5799 5798 5796 5793 5791 5788 5785 5783 5780 5777 5774 5771 5768 5765 5762 5760 5758 5755 5752 5750 5748 5745 5743 5740 5739 5738
5824 5824 5823 5822 5823 5826 5828 5827 5827 5827 5826 5826 5827 5827 5826 5825 5825 5824 5823 5822 5822 5822 5821 5820 5818 5816 5815 5814 5812 5811 5809 5806 5804 5801 5799 5797 5795 5793 5792 5790 5788 5786 5783 5780 5777 5774 5772 5770 5767 5764 5761 5758 5756 5753 5750 5748 5746 5743 5741 5739 5736 5735 5734
5818 5818 5818 5818 5819 5821 5822 5822 5822 5822 5822 5822 5822 5822 5821 5821 5820 5820 5819 5818 5818 5817 5816 5814 5813 5811 5809 5807 5806 5805 5803 5800 5798 5796 5794 5792 5790 5788 5786 5785 5783 5781 5778 5775 5772 5770 5768 5765 5762 5759 5756 5753 5751 5748 5746 5744 5742 5739 5736 5734 5732 5730 5729
5813 5812 5812 5813 5814 5816 5816 5816 5817 5817 5817 5818 5818 5817 5817 5817 5816 5815 5814 5814 5813 5812 5811 5810 5808 5806 5804 5802 5800 5798 5796 5794 5793 5791 5788 5787 5785 5783 5781 5779 5778 5776 5773 5770 5768 5766 5764 5761 5758 5754 5751 5749 5746 5744 5742 5740 5738 5736 5733 5730 5727 5726 5725
5807 5807 5807 5808 5809 5810 5811 5811 5811 5812 5812 5813 5813 5813 5812 5811 5811 5811 5810 5809 5808 5808 5806 5805 5804 5801 5799 5797 5795 5793 5791 5789 5787 5786 5783 5781 5780 5778 5775 5774 5772 5770 5767 5765 5763 5761 5759 5756 5753 5750 5747 5745 5742 5739 5738 5736 5734 5732 5729 5726 5724 5723 5722
5802 5802 5802 5803 5803 5804 5805 5806 5806 5807 5807 5807 5807 5808 5807 5807 5806 5806 5805 5805 5803 5802 5801 5800 5798 5796 5794 5791 5789 5787 5785 5783 5781 5780 5778 5776 5774 5772 5769 5768 5766 5764 5762 5760 5758 5756 5754 5752 5749 5745 5743 5741 5737 5735 5734 5732 5730 5728 5726 5723 5721 5720 5719
5798 5798 5799 5798 5798 5798 5799 5800 5801 5801 5801 5802 5803 5803 5803 5803 5803 5802 5801 5800 5798 5797 5795 5793 5792 5790 5788 5786 5784 5782 5780 5777 5776 5774 5772 5770 5768 5766 5764 5762 5760 5758 5757 5756 5754 5752 5749 5747 5745 5742 5739 5737 5734 5731 5730 5728 5726 5725 5723 5720 5718 5717 5717
5793 5794 5794 5793 5793 5794 5795 5795 5796 5796 5796 5797 5797 5797 5797 5797 5796 5796 5795 5794 5792 5790 5788 5787 5785 5784 5782 5781 5779 5778 5775 5772 5770 5768 5766 5764 5762 5761 5759 5756 5754 5753 5752 5751 5749 5747 5745 5743 5740 5737 5735 5733 5730 5728 5726 5724 5722 5721 5719 5717 5716 5714 5714
5788 5789 5789 5788 5789 5791 5792 5792 5792 5791 5791 5791 5790 5790 5790 5789 5789 5788 5787 5787 5786 5784 5783 5781 5780 5778 5777 5776 5775 5773 5771 5768 5765 5762 5760 5759 5757 5755 5753 5751 5749 5747 5746 5745 5743 5741 5739 5737 5735 5732 5730 5728 5726 5724 5722 5721 5719 5718 5716 5715 5713 5711 5710
5784 5784 5784 5784 5785 5787 5787 5788 5789 5788 5787 5786 5785 5784 5784 5784 5784 5783 5782 5780 5779 5778 5777 5776 5774 5773 5771 5770 5769 5767 5765 5763 5760 5757 5755 5753 5751 5749 5747 5745 5743 5742 5740 5739 5737 5736 5734 5733 5730 5728 5725 5724 5722 5720 5718 5717 5715 5714 5713 5712 5710 5708 5708
5779 5780 5780 5781 5782 5782 5781 5782 5783 5783 5782 5781 5780 5780 5780 5779 5779 5778 5777 5775 5774 5772 5771 5770 5769 5767 5765 5763 5762 5760 5758 5756 5753 5751 5749 5746 5744 5742 5741 5739 5737 5736 5735 5734 5732 5731 5730 5728 5726 5723 5721 5719 5718 5716 5714 5712 5711 5709 5708 5708 5707 5706 5705
5773 5775 5776 5776 5777 5777 5776 5776 5777 5777 5777 5777 5776 5776 5775 5774 5773 5772 5771 5769 5768 5767 5765 5764 5763 5761 5759 5756 5755 5753 5750 5748 5746 5744 5742 5739 5737 5736 5734 5732 5731 5731 5730 5728 5727 5726 5724 5723 5721 5719 5716 5714 5713 5712 5710 5709 5707 5706 5705 5704 5703 5702 5701
5768 5769 5770 5770 5771 5771 5772 5772 5772 5772 5772 5772 5772 5771 5770 5769 5767 5766 5764 5763 5762 5761 5759 5757 5756 5754 5752 5750 5748 5746 5744 5742 5739 5737 5735 5733 5731 5730 5728 5727 5725 5725 5724 5723 5722 5720 5718 5717 5716 5714 5711 5708 5707 5707 5706 5705 5704 5703 5702 5701 5700 5699 5698
Wind_Speed
13 12 14 16 14 15 16 15 14 14 11 9 10 12 14 17 19 20 22 24 23 23 23 22 21 21 22 22 23 23 23 24 25 24 24 25 27 28 27 28 30 30 29 29 30 31 32 34 35 36 37 38 38 38 38 39 38 39 39 39 39 40 40
16 16 16 16 17 18 18 17 18 17 14 14 14 14 15 18 20 21 23 25 25 26 26 24 23 23 23 23 24 25 25 26 26 27 27 26 28 29 28 30 32 32 31 31 31 32 34 35 36 37 38 39 38 39 40 41 40 40 40 40 40 40 40
19 21 18 15 17 18 17 18 19 18 16 15 16 16 16 17 18 19 22 23 23 24 25 24 24 23 23 23 24 25 26 27 28 28 27 26 29 30 29 31 33 34 34 34 34 34 36 37 38 38 39 39 39 40 41 42 42 42 41 41 42 42 42
22 25 21 16 15 15 16 18 19 18 16 15 17 17 16 15 17 19 21 22 21 22 22 23 24 23 23 24 25 26 27 28 28 27 25 27 30 29 28 32 35 36 37 36 36 36 38 39 40 39 39 39 40 41 42 42 42 42 42 42 42 43 43
26 26 23 19 16 14 13 14 15 16 17 18 17 16 16 17 19 22 24 24 23 20 20 20 21 23 24 25 26 26 27 28 27 26 26 28 30 29 29 33 36 36 37 37 37 38 39 41 41 40 40 40 42 42 42 42 42 42 42 42 43 43 43
29 30 27 21 18 17 14 13 14 17 22 23 20 19 20 20 21 23 24 23 21 19 18 19 21 22 23 24 25 26 27 28 26 25 27 28 29 29 30 33 36 36 36 37 38 38 39 40 41 40 40 42 43 43 43 42 42 42 42 42 42 41 41
29 31 31 25 22 22 19 18 19 21 24 25 22 22 21 20 21 22 22 22 21 19 20 21 22 23 24 24 25 26 28 27 24 24 26 28 30 30 31 35 36 35 35 37 38 39 39 40 41 41 42 43 44 43 43 43 43 42 42 41 41 40 39
27 29 31 29 27 26 23 23 24 25 25 25 24 22 20 20 21 23 25 26 23 21 22 22 23 25 25 26 26 28 29 27 23 23 25 28 30 31 34 36 35 33 34 37 39 40 41 41 41 42 42 43 44 44 44 44 43 42 42 42 41 39 38
22 23 27 28 27 27 27 26 25 26 27 26 25 23 22 24 25 26 28 25 22 22 24 24 25 26 27 29 29 30 30 27 24 24 26 28 30 32 36 36 34 34 36 38 39 40 41 41 42 42 42 42 43 43 43 43 43 43 43 42 40 39 37
21 21 24 26 28 30 30 28 26 26 28 28 27 27 28 28 28 27 25 23 22 24 25 25 26 27 29 30 31 30 30 28 27 27 27 28 30 33 36 36 34 35 38 40 41 41 41 41 41 41 42 42 42 43 43 43 43 43 43 42 40 39 37
25 24 25 27 29 30 30 29 27 27 28 29 29 29 30 30 28 25 24 24 24 24 25 25 27 29 30 31 31 30 30 29 27 27 27 29 31 35 37 36 35 37 40 41 41 41 41 41 41 41 42 43 43 44 44 44 43 43 43 42 41 39 37
27 27 28 29 29 29 30 30 29 28 29 30 30 30 29 29 28 25 24 25 25 25 26 27 28 30 31 31 31 32 31 29 27 27 29 31 33 35 37 37 36 38 41 42 41 41 41 41 41 42 42 43 44 45 46 45 44 44 43 42 41 40 37
29 29 28 28 28 29 30 31 31 31 30 30 30 30 29 29 28 26 25 27 27 26 27 28 29 30 31 31 32 33 32 29 28 29 31 33 35 36 38 37 36 39 42 42 41 41 41 41 42 42 43 44 45 46 47 46 45 44 43 42 41 40 37
31 30 30 30 30 32 32 33 33 33 31 29 29 29 28 29 29 28 28 29 28 27 28 29 30 31 32 33 33 33 32 31 31 32 34 35 36 38 38 37 37 40 43 42 41 41 41 41 42 43 44 45 45 46 47 47 46 44 42 40 39 39 37
32 32 32 33 34 35 34 34 34 33 30 28 28 27 27 29 31 31 30 31 30 29 29 30 31 32 33 33 33 32 32 32 33 34 36 37 37 38 38 37 38 41 42 41 42 42 42 43 43 44 45 45 45 46 47 47 46 44 41 38 38 38 37
33 32 33 33 33 34 33 31 31 31 29 27 27 27 28 30 32 32 32 33 32 31 31 31 31 31 32 32 31 31 31 32 33 35 37 38 38 37 37 38 40 42 42 41 41 42 43 43 44 44 45 45 45 46 47 47 46 43 40 38 38 38 36
33 32 33 33 34 33 30 28 28 28 28 29 29 29 31 32 32 33 33 34 34 34 33 31 30 30 30 30 29 30 31 31 33 36 38 38 37 36 37 39 42 43 42 41 41 42 43 43 44 44 44 45 45 45 46 46 44 41 39 37 37 36 34
35 35 34 35 35 32 27 26 28 29 31 32 32 32 32 32 33 35 36 36 36 36 34 32 32 31 29 28 29 29 30 32 34 37 38 37 36 36 38 40 42 42 41 40 42 43 43 43 44 44 44 45 45 45 45 45 42 39 37 36 36 34 32
37 36 36 37 36 31 27 27 28 30 31 32 32 32 32 33 35 36 37 38 37 35 33 33 33 30 28 29 30 30 31 33 35 36 37 38 38 38 39 40 41 41 40 40 42 43 43 44 44 44 45 45 45 45 44 42 40 37 35 35 36 34 32
38 37 37 38 36 32 30 29 29 30 31 32 32 32 33 35 36 37 38 38 38 36 34 33 32 29 30 32 32 32 33 33 34 37 40 41 40 39 39 39 39 38 38 40 42 42 43 43 44 45 45 45 44 43 41 40 38 35 33 34 34 33 31
40 38 38 38 37 34 32 30 31 32 32 32 33 34 35 36 36 36 37 36 36 34 32 30 29 30 31 33 33 33 33 33 35 40 43 42 40 39 39 38 36 36 38 41 42 42 42 43 43 44 44 43 42 41 40 39 37 33 31 32 31 29 28
41 40 40 39 38 35 33 32 33 33 32 33 33 33 35 35 35 35 34 32 31 31 30 29 29 31 32 33 32 32 33 36 41 43 43 41 40 40 39 36 34 36 39 41 41 40 41 42 43 43 43 42 41 41 40 38 35 31 29 30 29 28 28
42 41 40 40 39 36 33 31 32 33 33 33 33 33 34 34 34 33 31 29 29 30 30 31 32 33 34 33 32 34 38 42 44 44 43 43 42 41 39 36 36 37 39 40 40 39 40 42 43 43 42 41 41 41 40 37 34 31 29 30 31 31 30
40 39 39 40 39 37 33 31 31 32 34 34 33 32 31 30 30 30 29 29 30 30 30 31 32 33 34 34 34 37 40 42 44 44 44 43 42 41 40 39 39 39 40 41 40 39 41 42 42 41 40 40 40 40 39 36 34 33 31 30 31 32 32
38 38 39 39 39 36 33 33 32 32 33 33 32 30 28 27 27 28 29 30 30 30 30 31 32 34 35 36 37 38 40 42 44 44 43 42 42 42 41 41 41 41 40 40 40 41 42 42 41 40 38 38 39 39 37 36 35 34 33 31 31 31 31
37 37 38 40 40 36 33 33 32 31 31 31 30 29 28 27 27 28 29 30 30 31 32 32 33 36 37 38 38 39 41 43 44 44 43 43 43 43 42 42 42 41 41 41 42 43 42 40 39 38 38 38 39 38 37 37 36 35 34 32 31 30 29
36 38 40 40 39 36 34 34 33 32 33 32 31 29 29 29 29 30 30 31 32 34 35 35 36 38 39 40 41 41 44 45 45 44 44 44 43 43 43 43 42 42 42 42 43 43 41 39 37 37 38 39 40 39 39 37 35 33 33 33 31 29 28
38 40 41 41 38 36 36 35 34 34 34 33 31 31 32 32 31 31 32 33 35 36 36 37 38 39 41 42 43 44 46 46 45 44 45 45 44 44 44 44 43 42 42 43 43 42 40 38 38 38 39 40 41 39 38 35 32 30 31 32 30 28 26
41 41 42 41 39 38 37 36 36 36 36 35 34 33 33 33 32 32 33 35 36 37 38 39 40 41 42 44 45 46 47 46 44 44 44 44 43 44 44 44 44 44 43 43 43 41 38 38 39 39 40 41 41 38 34 32 29 27 28 30 29 27 25
41 42 43 42 41 40 40 39 39 39 38 38 36 35 33 33 34 35 36 37 39 40 40 41 42 42 44 45 45 45 44 44 44 44 43 43 43 44 45 45 45 45 44 43 42 41 39 38 39 40 40 40 39 37 34 31 28 25 25 27 27 25 23
42 43 44 44 44 43 43 41 40 40 39 37 36 35 35 35 36 37 38 39 40 41 41 42 42 42 43 43 43 43 44 44 44 44 44 44 44 44 45 46 46 45 44 42 41 40 39 38 39 40 39 38 37 36 34 31 27 24 23 24 24 23 21
44 44 45 45 45 44 44 42 42 41 40 38 37 38 38 39 39 39 40 40 41 41 42 42 43 43 43 43 42 43 44 44 45 45 45 45 45 45 45 46 46 45 43 41 39 38 37 37 39 39 39 37 36 35 32 29 27 24 22 21 21 21 20
46 45 46 47 47 45 44 42 41 41 40 40 41 42 42 42 42 42 43 42 41 41 41 42 42 42 42 42 42 41 42 44 45 45 44 44 45 45 45 46 46 45 42 40 38 37 36 36 37 39 39 38 36 34 30 26 24 23 22 20 19 20 20
47 47 48 48 48 46 44 42 40 41 42 42 43 45 45 44 43 43 43 42 42 41 41 41 41 42 42 42 42 42 43 43 44 43 43 44 45 45 45 46 45 42 39 37 37 37 37 37 37 40 41 39 37 34 29 25 23 23 21 19 19 19 20
47 48 48 48 46 45 45 44 43 44 44 45 45 45 45 45 44 43 42 42 42 42 41 41 41 41 42 42 42 43 43 42 42 42 43 44 45 46 45 44 42 38 37 37 38 39 40 39 39 41 42 40 37 34 30 25 24 23 22 20 19 19 19
48 49 48 48 47 47 47 47 47 46 46 46 46 46 46 46 45 43 43 43 42 41 41 41 40 41 42 42 42 42 42 41 41 42 44 46 47 47 46 44 42 41 40 42 42 41 40 39 38 40 43 42 38 33 29 25 23 23 23 23 21 20 19
49 50 50 50 49 49 49 49 48 47 46 45 45 45 46 45 44 43 43 43 42 42 42 42 42 42 43 43 42 42 42 43 43 44 45 47 47 46 45 45 44 43 43 43 42 40 39 38 38 40 42 41 35 29 25 23 21 21 22 23 22 21 20
Wind_Direction
265 260 255 254 247 247 252 251 254 261 262 257 257 258 250 245 247 249 251 256 266 276 282 291 297 296 298 303 306 311 317 320 322 324 328 327 322 319 322 328 332 332 329 325 322 320 320 321 322 321 319 318 318 316 315 313 311 309 306 304 303 302 301
269 265 262 263 256 248 250 252 251 260 267 266 270 265 249 245 250 252 252 253 259 268 278 287 293 294 299 305 308 312 315 317 320 323 324 321 317 317 322 327 331 330 327 324 322 321 321 321 320 320 318 318 318 317 316 314 312 310 307 306 306 305 304
276 275 271 268 262 251 251 254 254 259 266 275 286 281 261 253 252 249 249 251 257 268 277 284 291 298 305 307 308 309 312 314 317 318 316 313 313 316 320 324 327 327 325 325 324 323 321 320 320 320 319 319 319 318 316 314 312 310 308 308 308 307 306
272 275 272 265 263 257 255 258 258 256 260 278 295 289 274 259 248 244 247 256 268 278 280 283 289 297 304 305 305 305 307 309 312 313 311 308 310 315 320 322 325 326 325 324 324 322 321 321 321 321 319 319 319 317 315 313 311 310 308 308 308 308 307
270 272 267 260 263 268 269 265 253 246 260 281 290 286 280 269 255 251 256 266 277 284 284 284 287 292 299 301 302 302 303 305 311 314 310 307 309 314 320 321 323 325 322 321 322 322 322 322 321 320 319 319 318 316 314 312 310 309 308 308 308 308 308
272 270 264 263 271 274 274 269 254 256 274 286 289 288 289 283 272 267 269 276 282 285 287 288 288 292 296 298 299 301 303 308 315 315 311 309 310 314 318 319 321 322 320 320 323 322 321 321 320 320 319 318 317 316 313 312 310 309 309 310 310 310 309
267 267 266 270 279 280 275 273 274 278 284 288 289 290 288 284 282 282 282 284 285 286 287 289 290 292 294 295 298 302 307 313 317 314 312 311 310 312 315 316 319 321 319 321 322 321 321 321 320 319 318 317 317 315 314 312 312 312 312 313 313 313 311
263 262 263 268 275 279 278 280 286 289 288 288 289 289 282 277 280 284 283 284 286 287 288 290 291 292 293 297 302 307 311 316 317 312 308 307 308 310 311 313 319 322 321 322 322 322 322 321 320 318 318 317 316 315 313 313 313 314 314 315 316 315 313
259 255 258 263 270 275 278 280 283 283 282 283 285 284 279 276 280 281 280 283 288 289 291 293 293 294 297 302 306 310 313 314 312 308 306 306 307 307 308 315 322 323 322 323 323 323 322 319 318 317 317 317 316 314 313 313 314 315 316 317 318 317 314
255 252 254 261 268 272 275 276 275 275 278 280 282 282 279 277 278 276 275 279 284 287 292 295 296 297 299 302 306 309 311 310 308 307 307 307 306 307 312 319 323 322 322 323 323 322 319 317 317 317 317 318 317 315 314 314 315 316 317 319 319 318 315
260 260 261 263 266 269 273 274 274 274 277 279 279 278 276 277 277 275 277 283 285 289 295 297 297 297 298 301 304 307 308 308 308 308 307 307 308 311 316 320 322 321 322 323 322 320 317 316 317 317 318 319 318 316 314 314 316 316 318 320 320 319 317
261 263 266 267 267 268 272 274 275 275 276 277 279 278 278 279 280 282 286 288 288 291 295 295 294 295 297 300 303 307 310 311 311 310 308 309 311 314 317 319 320 321 321 321 320 317 316 317 317 317 318 318 318 316 314 314 316 317 318 320 320 319 317
265 266 268 271 273 273 274 274 275 275 275 277 279 280 280 279 279 280 282 284 285 289 291 291 292 294 298 301 305 310 313 314 314 312 310 311 313 315 317 318 319 319 318 317 317 316 316 317 317 317 317 317 316 314 313 314 316 317 319 320 320 318 317
270 271 273 275 277 276 274 273 274 274 275 276 276 276 278 279 279 279 279 281 285 288 290 292 295 299 302 305 309 313 314 314 314 313 311 312 313 314 315 316 317 317 315 314 315 315 317 317 316 316 315 315 314 313 313 314 316 318 319 320 320 318 317
270 272 274 275 276 275 274 275 276 276 277 276 275 274 274 276 277 278 279 282 287 291 293 295 298 301 304 307 310 311 310 311 312 311 310 309 311 313 314 314 315 314 312 312 313 315 316 315 314 314 313 313 313 312 312 313 316 318 319 319 319 317 317
270 271 271 272 274 275 277 278 279 280 279 277 274 273 272 274 277 279 281 285 289 292 294 296 299 301 302 304 306 307 307 308 308 307 305 305 309 312 312 312 313 312 310 311 312 313 313 312 312 313 312 312 312 311 312 313 315 317 318 319 318 317 316
269 268 267 269 270 271 274 277 276 275 273 271 269 269 272 276 279 280 282 286 290 292 294 296 298 298 298 300 302 303 303 304 303 300 300 303 308 309 309 311 312 310 309 309 309 309 310 310 311 312 312 312 312 312 313 314 315 317 318 317 317 316 315
267 266 266 267 267 268 271 271 268 268 269 269 270 272 275 278 278 280 282 286 290 293 294 295 296 296 296 299 299 298 298 297 296 296 300 305 307 306 309 311 310 308 307 306 306 307 310 311 312 313 314 314 314 314 314 314 316 317 317 315 314 313 313
268 268 269 269 268 268 269 266 264 266 269 271 273 275 276 276 277 280 284 287 290 292 293 296 297 297 296 297 296 294 293 294 296 299 304 306 305 305 308 309 307 305 304 304 305 308 310 311 313 314 315 316 315 315 314 314 315 317 317 314 312 309 309
271 271 272 272 272 271 270 269 269 268 268 271 273 273 273 273 276 279 283 287 291 292 294 297 298 296 294 293 291 291 293 294 298 302 304 304 304 306 306 305 303 302 302 303 305 307 309 312 313 314 314 315 315 314 313 313 316 318 317 315 313 308 305
276 276 275 274 274 274 275 275 273 270 270 272 272 272 272 274 276 279 282 285 289 291 294 295 295 293 291 289 289 291 291 293 298 302 303 303 304 304 303 302 302 302 303 304 304 306 309 311 312 312 314 315 314 312 312 314 318 320 317 316 317 313 307
275 276 277 277 277 277 278 278 276 274 273 273 273 273 275 277 280 282 284 286 287 290 293 293 292 292 290 289 290 289 289 294 301 304 303 304 304 302 303 304 303 303 304 304 305 307 309 309 310 312 314 314 313 312 312 315 318 320 316 312 314 314 310
271 273 274 275 275 275 275 275 274 274 273 273 274 275 277 280 283 285 287 288 287 289 291 291 292 292 292 293 292 290 292 298 302 303 304 304 304 304 305 306 306 306 306 306 307 309 308 308 309 312 314 313 313 314 314 314 317 318 315 309 306 306 306
269 270 271 271 272 273 273 271 271 272 274 275 276 278 281 283 285 286 287 286 286 287 288 290 293 294 294 295 294 293 295 299 301 302 303 303 303 305 307 308 309 310 309 308 309 309 307 308 309 312 313 314 314 314 312 311 314 318 316 310 305 302 302
265 267 269 271 271 271 272 273 275 276 277 279 282 285 286 285 284 284 283 282 284 287 291 294 296 295 294 294 295 295 296 298 300 302 302 302 303 305 308 309 311 312 310 308 307 306 306 308 309 311 312 311 312 313 312 311 315 318 316 312 307 303 300
268 268 269 271 272 274 277 279 280 280 280 282 285 286 285 285 286 286 284 284 288 292 294 295 296 295 295 295 296 297 297 298 301 303 303 303 304 305 307 309 310 310 308 305 304 304 305 307 308 308 308 308 309 311 311 312 315 317 315 311 307 304 300
269 271 273 275 277 278 279 280 280 280 280 283 285 284 284 289 290 289 288 290 292 294 296 297 298 298 297 297 297 298 298 299 302 302 301 301 303 303 305 306 307 306 304 301 301 303 304 305 306 306 306 307 308 309 310 312 316 316 314 310 305 302 299
269 271 274 276 277 278 279 281 280 279 279 280 281 283 287 291 292 291 292 294 296 297 299 301 301 300 298 297 297 297 297 297 298 298 298 300 302 302 302 303 304 302 299 297 298 301 303 304 306 306 306 307 308 309 310 314 316 315 310 306 303 300 298
268 269 272 274 275 277 279 279 278 280 281 282 283 287 291 292 293 293 295 298 300 301 302 303 301 299 296 294 294 293 293 294 294 294 295 297 298 298 298 299 300 298 295 295 299 303 305 306 307 306 306 308 309 310 313 315 314 311 305 301 299 299 297
263 266 270 272 274 276 277 278 280 283 284 286 288 291 292 293 294 295 297 299 300 299 298 297 294 291 289 289 290 291 292 293 293 294 295 295 295 295 296 297 298 298 296 298 302 305 306 306 306 305 307 310 309 309 313 314 310 306 302 297 296 297 297
258 262 266 269 271 273 276 279 282 284 285 287 288 288 289 290 291 291 292 293 294 292 291 289 287 286 287 289 292 294 295 295 296 296 296 296 295 295 294 295 297 298 298 300 303 304 304 304 304 305 308 311 309 308 311 311 307 304 300 294 292 293 294
255 258 261 265 268 272 276 279 282 284 287 288 287 287 289 290 291 291 291 292 292 291 290 289 290 291 292 294 296 296 295 295 295 295 294 293 293 293 292 294 296 297 298 300 302 302 301 302 304 306 309 311 309 308 309 308 305 303 299 292 289 289 288
255 256 258 261 265 270 275 278 281 283 285 287 287 288 289 291 292 294 294 294 294 292 290 290 291 292 293 294 294 293 292 291 290 291 291 291 291 291 292 294 296 297 297 299 301 301 301 303 304 305 308 309 309 308 308 306 303 301 297 292 289 288 285
253 256 258 261 264 267 271 273 275 276 279 281 282 284 288 291 294 295 295 294 293 290 289 289 290 290 291 291 291 291 291 291 291 291 291 291 291 292 293 294 295 296 296 297 298 300 302 303 303 303 305 305 305 305 306 306 305 302 298 292 288 288 287
253 255 258 261 263 266 267 269 271 273 276 278 281 285 289 291 292 292 292 291 289 287 287 287 287 288 289 290 292 293 292 292 292 292 292 292 292 292 293 293 293 294 294 295 295 298 300 300 299 300 302 302 301 300 300 302 302 300 296 290 284 283 283
254 255 256 257 260 262 264 266 269 273 277 279 282 286 287 288 288 289 289 288 287 287 288 288 288 289 291 292 293 293 292 292 291 291 290 291 291 292 292 292 291 291 292 293 294 297 298 297 296 298 300 299 295 292 293 295 296 294 291 289 287 286 285
254 256 258 258 260 264 267 268 271 275 278 279 281 282 283 285 287 288 288 287 286 287 288 289 291 293 294 294 293 292 292 291 290 289 289 289 289 290 290 291 291 291 292 293 295 295 293 292 295 298 298 294 290 287 288 292 293 291 289 288 289 291 291